Regional Weather Roundup
Issued by NWS

Home | Current Version | Previous Version | Graphics & Text | Print | Product List | Glossary Off
Versions: 1 2 3 4 5 6 7 8 9 10 11 12 13 14 15 16 17 18 19 20 21 22 23 24 25 26 27 28 29 30 31 32 33 34 35 36 37 38 39 40 41 42 43 44 45 46 47 48 49 50

000
ASUS43 KIND 301059
RWRIN

WEATHER ROUNDUP FOR INDIANA
NATIONAL WEATHER SERVICE INDIANAPOLIS IN
700 AM EDT MON MAR 30 2015

NOTE: "FAIR" INDICATES FEW OR NO CLOUDS BELOW 12,000 FEET WITH NO
SIGNIFICANT WEATHER AND/OR OBSTRUCTIONS TO VISIBILITY.

* - STATION DOES NOT REPORT WEATHER SUCH AS PRECIPITATION OR FOG.

+ - STATION NOT QUALITY CONTROLLED BY THE NATIONAL WEATHER SERVICE.
    USE DATA WITH CAUTION...ESPECIALLY DEWPOINT AND RELATIVE
    HUMIDITY OBSERVATIONS.

INZ001>003-010>013-019-020-301200-
NORTHWEST INDIANA

CITY           SKY/WX    TMP DP  RH WIND       PRES   REMARKS
GARY /AIRPORT/ CLEAR     36  27  69 W8        30.01R
KNOX *+          N/A     34  23  64 W10       29.98R WCI  26

$$

LMZ046-743>745-301200-
SOUTHERN LAKE MICHIGAN

STATION/POSITION TIME  TEMP WIND        PRES
                       AIR  DIR/SP/G
                 (UTC) (F)  (DEG/KT/KT) (MB)
BURNS HARBOR     1000   39  260/ 12/ 13 1015.9R
MICHIGAN CITY    1000   37  220/ 13/ 14   N/A

$$

INZ004-005-014>016-021>024-301200-
NORTH CENTRAL INDIANA

CITY           SKY/WX    TMP DP  RH WIND       PRES   REMARKS
ELKHART        CLEAR     32  25  74 W7        29.97  WCI  26
GOSHEN         CLEAR     33  27  78 W7        29.95R WCI  27
SOUTH BEND     CLEAR     34  29  82 W8        29.97R WCI  27
WARSAW +       CLEAR     32  30  93 W7        29.96R WCI  26

$$

INZ006>009-017-018-025>027-301200-
NORTHEAST INDIANA

CITY           SKY/WX    TMP DP  RH WIND       PRES   REMARKS
ANGOLA *+      CLEAR     36  28  75 W8        29.91R
AUBURN +       CLEAR     37  28  70 W12G18    29.95R
FORT WAYNE     CLEAR     35  29  78 W9        29.96R WCI  28

$$

INZ028-029-035-036-043>045-051>053-301200-
WEST CENTRAL INDIANA

CITY           SKY/WX    TMP DP  RH WIND       PRES   REMARKS
CRAWFORDSVL +  CLEAR     35  28  78 W9        30.03R WCI  27
GREENCASTLE +  CLEAR     39  32  75 W5        30.03R
LAFAYETTE      CLEAR     34  30  85 W5        30.02R WCI  30
TERRE HAUTE    CLEAR     39  32  76 NW6       30.06R

$$

INZ030>032-037>040-046>048-054>057-064-065-301200-
CENTRAL INDIANA

CITY           SKY/WX    TMP DP  RH WIND       PRES   REMARKS
CP ATTERBURY + CLEAR     37  34  87 W3        30.03R
FRANKFORT +    CLEAR     33  33 100 W8        30.03R WCI  25
GREENWOOD *+   CLEAR     39  34  81 W5        30.02R
INDIANAPOLIS   CLEAR     39  33  79 NW10      30.00R
-EAGLE CREEK   CLEAR     39  33  79 W9        30.01R
KOKOMO *+        N/A     36  30  80 W9        29.99R
MT COMFORT *+  CLEAR     34  28  80 W9        30.01R WCI  26
SHELBYVILLE    CLEAR     37  33  85 W5        30.01R

$$

INZ033-034-041-042-049-050-058-059-301200-
EAST CENTRAL INDIANA

CITY           SKY/WX    TMP DP  RH WIND       PRES   REMARKS
MUNCIE         CLEAR     37  32  82 W7        29.98R

$$

INZ060-061-067>069-081>083-085>088-301200-
SOUTHWEST INDIANA

CITY           SKY/WX    TMP DP  RH WIND       PRES   REMARKS
EVANSVILLE     CLEAR     45  37  73 W7        30.10R
HUNTINGBURG *+ CLEAR     41  34  75 W6        30.08R

$$

INZ062-063-066-070>080-084-089>092-301200-
SOUTH CENTRAL AND SOUTHEAST INDIANA

CITY           SKY/WX    TMP DP  RH WIND       PRES   REMARKS
BLOOMINGTON    CLEAR     39  36  89 W5        30.04R
SEYMOUR +      CLEAR     36  34  93 S5        30.05R

$$




USA.gov is the U.S. government's official web portal to all federal, state and local government web resources and services.